Overview Statistics Trail Chart Weather Telemetry Raw packets
 

This is the latest recevied weather packets stored in our database for station/object N9BLE. If no packets are shown the sender has not sent any weather packets the latest 10 day(s).

<< 7 8 9 10 11 12 13 >>
Time Temp. Humidity Pressure Rain* Wind** Luminosity Snow
1777984503 8.33° C 71% 1012.8 hPa 0 mm - 39 W/m² -
1777984198 8.33° C 67% 1012.9 hPa 0 mm - 25 W/m² -
1777983896 8.33° C 67% 1012.9 hPa 0 mm - 26 W/m² -
1777983592 8.33° C 66% 1013.6 hPa 0 mm - 17 W/m² -
1777983289 7.78° C 65% 1013 hPa 0 mm - 17 W/m² -
1777982985 7.78° C 68% 1012.5 hPa 0 mm - 7 W/m² -
1777982682 7.78° C 69% 1012.8 hPa 0 mm - 6 W/m² -
1777982381 7.78° C 67% 1012.7 hPa 0 mm - 7 W/m² -
1777982078 7.78° C 69% 1012.5 hPa 0 mm - 7 W/m² -
1777981776 7.78° C 68% 1012.8 hPa 0 mm - 6 W/m² -
1777981471 7.78° C 68% 1013.1 hPa 0 mm - 5 W/m² -
1777981168 7.78° C 68% 1013.1 hPa 0 mm - 3 W/m² -
1777980865 7.78° C 67% 1012.4 hPa 0 mm - 2 W/m² -
1777980560 7.78° C 65% 1012.3 hPa 0 mm - 2 W/m² -
1777980258 7.78° C 64% 1012.1 hPa 0 mm - 2 W/m² -
1777979954 8.33° C 65% 1011.5 hPa 0 mm - 2 W/m² -
1777979649 8.33° C 64% 1011.3 hPa 0 mm - 2 W/m² -
1777979346 8.33° C 63% 1011.5 hPa 0 mm - 2 W/m² -
1777979043 8.89° C 65% 1011.9 hPa 0 mm - 1 W/m² -
1777978739 8.89° C 62% 1010.4 hPa 0 mm - 1 W/m² -
1777978436 8.89° C 60% 1010.8 hPa 0 mm - 0 W/m² -
1777978132 8.89° C 60% 1010.3 hPa 0 mm - 0 W/m² -
1777977830 8.89° C 62% 1010.8 hPa 0 mm - 0 W/m² -
1777977525 9.44° C 58% 1010.7 hPa 0 mm - 0 W/m² -
1777977223 9.44° C 56% 1010.9 hPa 0 mm - 0 W/m² -

* Rain latest hour (hover to see other rain measurements)
** Current wind speed in m/s (hover to see current wind gust speed)